Wind_Speed
27 27 27 27 32 33 33 36 43 44 40 38 34 32 30 27 22 20 17 17 15 12 11 10 11 13 14 15 16 15 16 16 15 12 13 13 12 12 12 13 14 13 16
27 29 31 32 34 36 37 36 34 36 40 37 33 28 24 25 22 17 17 17 14 10 11 13 14 14 16 17 16 15 15 15 16 16 16 14 12 13 13 13 15 14 14
33 33 32 34 34 31 28 29 25 32 36 34 28 26 25 24 22 15 18 16 13 11 14 15 15 16 18 17 16 15 15 15 16 15 14 12 10 10 12 14 17 19 20
37 37 39 34 32 24 31 27 30 27 31 27 26 28 26 28 16 15 18 15 17 15 17 16 16 17 17 17 18 17 17 15 15 14 14 12 12 15 16 15 17 19 22
39 42 42 39 30 34 32 33 39 29 31 28 29 31 29 21 18 16 19 19 18 19 19 19 18 18 18 21 21 18 17 19 20 20 18 17 18 18 17 19 19 19 21
40 44 43 44 38 31 30 32 32 31 31 32 33 34 27 16 18 17 19 22 22 20 22 20 22 21 23 23 23 24 19 16 18 21 22 20 20 20 20 21 22 23 23
38 39 39 41 36 35 31 32 33 31 33 39 35 34 17 14 10 15 17 21 22 23 23 23 23 24 27 28 26 22 22 20 17 19 22 24 24 24 27 28 29 29 27
31 36 34 39 36 34 32 35 34 36 30 43 36 18 7 11 15 18 20 21 23 20 25 25 28 30 31 29 24 18 19 19 21 23 24 25 27 30 32 34 35 35 33
30 33 28 37 37 41 32 36 40 30 41 38 14 10 11 13 14 17 21 20 18 24 24 28 30 30 31 22 21 19 20 21 25 28 28 27 28 32 36 39 40 39 37
33 36 29 43 44 25 24 28 40 44 33 17 13 13 15 13 13 13 14 18 22 23 26 23 16 18 19 20 22 25 27 29 32 36 37 38 40 40 41 42 43 43 40
16 31 44 44 34 28 33 26 31 29 21 19 16 15 14 12 13 15 20 21 23 17 12 15 19 22 25 27 28 29 31 34 35 35 36 35 35 37 38 39 39 39 37
8 24 31 23 20 17 19 25 19 20 17 13 10 10 11 14 17 19 19 16 13 12 16 20 23 25 28 28 27 27 28 29 31 35 38 38 39 39 40 41 42 43 41
13 21 25 26 21 28 23 20 21 14 10 10 7 9 10 9 12 11 15 13 12 16 20 20 20 18 20 22 26 29 32 33 35 38 40 40 42 43 42 43 46 47 46
17 23 23 16 21 21 23 21 17 13 12 13 9 3 1 4 7 10 13 17 18 17 16 19 23 26 27 30 32 34 34 36 37 40 42 42 42 43 44 43 44 47 49
7 4 11 16 15 11 12 13 12 10 4 8 4 5 7 10 9 8 13 14 11 16 20 24 27 29 30 31 33 35 37 39 41 42 42 42 41 42 42 42 42 41 45
17 18 18 18 13 10 9 9 7 6 7 5 4 8 11 11 7 6 9 9 15 20 23 25 29 32 33 35 38 40 42 42 42 42 43 42 43 44 44 43 39 36 36
15 14 14 12 10 9 10 6 6 5 4 5 6 9 13 8 6 10 13 16 21 25 28 31 35 37 39 40 42 43 44 45 44 43 44 44 45 45 44 40 38 36 35
15 13 10 8 5 6 6 2 3 3 7 6 10 12 10 8 10 15 19 23 27 30 33 36 39 40 42 44 45 46 48 47 46 46 45 45 46 44 41 39 39 40 41
11 10 8 3 4 3 1 3 4 6 8 10 11 11 8 12 16 22 25 28 31 34 37 40 40 43 45 46 47 48 49 48 47 46 46 47 45 42 41 42 45 47 49
8 7 5 1 2 3 3 6 8 8 8 8 8 10 12 18 22 26 30 32 35 38 40 42 44 46 46 47 48 49 49 48 47 48 50 46 44 45 47 48 51 54 58
6 3 1 2 2 2 5 7 4 3 4 8 11 14 19 24 28 31 34 35 38 42 44 46 47 48 49 51 49 49 47 48 50 52 50 47 48 50 52 55 57 58 62
4 2 2 1 3 3 5 4 5 6 9 12 16 21 25 28 32 34 37 40 44 47 49 49 48 49 51 51 50 49 48 51 53 53 50 50 51 53 55 57 60 61 63
4 5 6 2 4 6 7 6 8 13 15 18 23 27 30 33 37 39 42 44 47 49 49 49 50 51 53 51 50 52 53 54 55 55 55 55 56 58 60 64 67 68 69
4 7 9 9 8 8 9 11 14 17 20 26 30 33 36 39 43 46 47 49 49 49 50 49 52 55 53 52 52 53 57 57 57 56 59 61 63 67 71 73 74 75 78
9 8 9 8 12 11 12 15 18 23 28 33 35 37 40 43 46 48 50 51 54 51 50 53 52 51 54 55 57 58 57 60 61 64 64 67 72 74 74 75 78 79 80
10 10 6 8 12 14 16 20 23 28 35 38 39 42 43 47 49 50 52 53 51 53 55 58 52 60 62 61 61 61 63 65 68 69 69 73 76 76 79 80 78 75 74
Wind_Direction
270 272 277 275 280 285 285 288 289 290 290 282 295 299 303 310 305 311 275 257 258 269 282 291 296 303 309 304 295 294 294 292 289 289 292 293 299 300 303 303 300 297 293
269 268 273 276 278 278 280 286 296 288 292 284 287 294 290 297 301 295 266 261 268 282 291 294 299 307 311 311 305 302 299 300 305 298 292 294 298 305 309 311 308 305 303
266 269 276 277 274 273 280 291 293 298 297 278 284 284 278 286 291 277 254 261 269 284 284 293 301 307 312 313 309 303 298 298 298 300 291 289 301 319 333 331 324 317 307
267 270 280 278 276 269 270 273 289 296 298 285 279 276 271 273 274 252 244 252 262 271 277 285 294 299 305 306 307 304 296 290 296 298 300 296 305 314 321 323 324 311 301
270 276 278 278 273 277 278 272 273 278 280 271 273 265 271 262 249 238 242 251 260 263 275 283 287 293 302 300 297 301 302 290 282 281 286 293 294 296 300 302 312 311 300
273 274 279 276 275 275 273 272 274 276 271 259 266 266 255 251 234 224 231 245 256 265 276 284 291 298 298 302 299 300 294 283 277 279 279 282 285 282 288 296 299 303 301
272 266 271 270 267 263 264 264 265 268 259 256 284 246 222 234 215 220 228 236 253 265 278 283 284 291 298 307 310 312 301 286 280 289 290 289 281 276 287 297 302 302 300
272 266 274 259 261 252 259 263 260 257 260 247 249 231 190 212 216 221 230 241 257 272 277 287 292 297 300 307 309 315 316 307 296 292 293 289 283 287 293 295 301 301 299
261 258 229 215 224 251 256 256 252 251 248 243 209 154 179 199 211 219 237 247 257 267 285 292 294 302 306 307 299 299 305 305 301 303 296 288 285 282 286 292 296 298 296
247 244 241 206 216 246 251 255 247 241 219 139 158 185 203 215 225 236 256 270 273 285 288 297 305 313 308 304 298 297 295 302 305 303 301 295 294 295 295 295 294 293 294
212 209 194 208 230 255 243 242 233 227 147 154 175 196 208 216 225 254 270 279 281 284 292 289 295 298 298 300 301 301 303 307 309 307 304 300 298 297 297 298 300 299 296
249 232 205 186 222 234 220 216 202 131 125 132 152 190 218 239 252 258 267 274 267 281 291 291 294 300 303 307 311 311 313 310 308 307 306 305 303 301 299 299 300 297 294
216 222 236 234 250 219 208 164 118 123 143 157 177 211 239 251 257 257 253 235 281 297 298 296 301 309 310 308 308 307 308 307 306 306 303 302 301 301 301 300 296 294 292
225 227 234 159 130 118 116 111 120 144 163 178 158 121 343 318 301 290 263 261 280 303 301 308 314 319 316 312 308 306 304 302 301 299 298 297 296 294 292 293 292 290 289
115 188 175 97 97 100 112 136 149 154 167 178 284 269 308 310 308 274 268 284 304 306 311 313 315 312 308 304 304 304 305 304 301 297 295 295 295 295 293 291 290 287 282
94 107 104 105 107 106 126 149 158 184 215 222 261 288 291 302 298 280 285 301 303 304 305 307 305 306 308 308 309 308 306 303 299 297 298 299 299 300 299 297 294 287 280
121 120 125 139 150 160 156 162 184 196 235 256 264 292 295 294 271 292 300 302 303 303 309 310 309 309 308 307 305 304 304 304 303 302 301 301 302 302 301 298 294 293 290
124 129 134 138 154 183 182 246 223 254 240 274 261 284 289 271 289 294 299 300 302 307 310 307 305 303 304 304 305 306 306 306 305 302 301 302 301 299 297 293 291 289 287
136 150 157 150 166 177 174 286 292 292 278 278 288 294 290 288 296 296 298 301 305 305 303 303 305 304 305 305 306 305 305 303 301 301 302 302 301 298 296 292 290 289 288
162 160 171 159 146 142 348 318 301 286 286 297 292 285 284 289 293 293 296 300 301 301 302 304 305 306 305 306 305 305 304 303 302 304 303 301 298 296 293 290 288 288 286
129 103 56 199 184 281 316 313 289 286 291 280 280 288 288 289 292 296 297 299 302 303 305 307 308 309 311 309 307 304 301 305 305 304 302 299 299 298 295 294 292 290 289
60 21 354 285 196 280 317 270 283 278 275 277 282 285 287 292 293 297 302 304 306 308 310 312 312 310 308 307 306 305 304 304 303 302 300 299 298 296 295 294 292 290 287
351 329 318 331 274 293 300 268 276 275 282 288 290 293 296 299 302 305 306 308 309 310 311 308 310 311 309 309 309 306 305 302 300 298 297 298 297 297 295 295 293 293 291
313 305 303 286 294 289 285 271 278 283 288 297 300 302 304 306 308 308 308 308 308 307 307 310 311 310 308 306 304 304 303 300 300 301 301 301 302 301 299 298 296 295 295
264 284 283 278 281 283 275 278 289 293 297 299 300 303 305 306 306 306 308 311 311 312 310 311 308 308 307 305 304 303 301 301 301 301 301 300 299 300 299 299 299 299 299
257 262 260 266 285 286 293 295 297 299 296 297 300 304 304 307 311 313 314 313 311 312 308 310 307 303 309 308 306 304 302 300 298 297 298 301 301 299 301 303 302 300 297
Height
5834 5835 5835 5835 5835 5834 5834 5833 5831 5831 5831 5832 5832 5832 5832 5831 5833 5834 5834 5834 5835 5835 5834 5833 5833 5832 5832 5830 5829 5828 5828 5827 5826 5824 5823 5822 5821 5820 5818 5818 5817 5816 5817
5828 5829 5829 5830 5830 5830 5830 5830 5829 5828 5828 5829 5828 5828 5828 5829 5830 5831 5832 5833 5834 5835 5834 5834 5833 5834 5832 5829 5827 5826 5825 5824 5823 5822 5821 5820 5819 5819 5817 5815 5815 5814 5814
5822 5823 5823 5824 5824 5825 5826 5826 5827 5827 5826 5825 5826 5826 5827 5827 5828 5829 5831 5833 5834 5833 5832 5832 5832 5832 5830 5829 5826 5824 5822 5821 5821 5820 5819 5818 5818 5816 5815 5813 5813 5812 5812
5816 5818 5819 5819 5820 5818 5820 5822 5823 5823 5823 5823 5823 5823 5824 5825 5826 5827 5830 5831 5832 5830 5829 5828 5829 5829 5828 5827 5825 5823 5820 5819 5818 5818 5818 5817 5815 5815 5814 5813 5811 5810 5809
5810 5812 5812 5812 5816 5815 5816 5817 5818 5819 5819 5818 5819 5819 5821 5822 5823 5825 5828 5830 5829 5828 5828 5826 5826 5827 5826 5825 5823 5821 5819 5817 5816 5816 5814 5815 5813 5811 5810 5809 5808 5807 5805
5804 5805 5806 5806 5808 5810 5811 5811 5812 5813 5814 5814 5816 5815 5817 5819 5820 5822 5825 5826 5827 5826 5826 5824 5823 5825 5824 5821 5820 5819 5817 5815 5812 5812 5812 5809 5809 5808 5807 5805 5804 5802 5801
5800 5800 5800 5800 5801 5803 5803 5804 5806 5807 5808 5809 5811 5812 5813 5816 5817 5819 5821 5823 5824 5824 5823 5821 5819 5818 5819 5818 5816 5814 5812 5810 5809 5808 5807 5805 5806 5804 5802 5800 5799 5798 5796
5794 5794 5795 5792 5791 5793 5795 5798 5800 5801 5803 5805 5806 5809 5810 5814 5815 5816 5819 5820 5822 5821 5820 5819 5817 5815 5815 5812 5811 5809 5807 5806 5805 5804 5803 5801 5799 5798 5796 5794 5793 5791 5790
5790 5791 5789 5785 5786 5789 5790 5792 5793 5796 5800 5802 5803 5806 5810 5811 5813 5816 5818 5818 5818 5818 5817 5815 5814 5812 5811 5806 5806 5805 5804 5801 5801 5801 5798 5797 5794 5791 5789 5787 5785 5783 5781
5781 5782 5777 5779 5782 5787 5787 5788 5789 5791 5794 5799 5804 5808 5809 5812 5814 5815 5815 5815 5815 5815 5813 5812 5808 5808 5805 5802 5800 5799 5798 5798 5796 5793 5792 5790 5787 5785 5782 5780 5778 5776 5774
5776 5777 5780 5779 5784 5784 5786 5789 5793 5794 5795 5800 5803 5807 5810 5811 5812 5815 5815 5813 5813 5811 5809 5808 5806 5802 5800 5798 5797 5797 5795 5792 5789 5788 5786 5783 5781 5778 5775 5772 5770 5768 5767
5781 5780 5780 5779 5783 5786 5787 5790 5791 5793 5798 5802 5805 5808 5808 5809 5811 5810 5810 5810 5809 5808 5806 5804 5803 5800 5798 5796 5794 5792 5790 5787 5784 5782 5780 5776 5773 5771 5768 5765 5762 5761 5759
5779 5779 5781 5780 5785 5784 5785 5787 5792 5796 5800 5802 5804 5806 5807 5806 5806 5805 5805 5806 5804 5804 5804 5801 5799 5797 5795 5793 5790 5787 5785 5782 5780 5777 5775 5771 5768 5764 5762 5757 5755 5752 5750
5778 5778 5777 5780 5783 5787 5785 5789 5792 5798 5800 5802 5802 5804 5804 5805 5804 5802 5803 5802 5801 5802 5800 5798 5796 5793 5790 5787 5785 5782 5779 5777 5773 5771 5768 5765 5762 5759 5756 5754 5750 5746 5742
5776 5777 5778 5781 5784 5791 5792 5793 5794 5797 5799 5801 5802 5800 5802 5803 5801 5800 5801 5800 5800 5799 5796 5793 5791 5789 5786 5783 5780 5777 5772 5769 5767 5764 5760 5757 5753 5750 5748 5746 5742 5739 5735
5778 5782 5784 5785 5791 5793 5794 5796 5795 5797 5800 5800 5799 5800 5800 5799 5797 5797 5799 5798 5798 5795 5792 5788 5787 5784 5780 5775 5771 5767 5764 5762 5759 5755 5751 5747 5743 5740 5737 5734 5731 5728 5726
5783 5786 5787 5791 5793 5794 5795 5795 5795 5796 5797 5796 5797 5797 5798 5796 5796 5797 5797 5795 5793 5789 5784 5782 5780 5776 5772 5768 5765 5760 5757 5753 5749 5745 5741 5737 5732 5728 5725 5722 5719 5717 5715
5786 5789 5791 5792 5793 5793 5793 5792 5794 5795 5793 5794 5795 5796 5795 5794 5794 5794 5792 5789 5787 5782 5778 5777 5774 5769 5764 5760 5755 5750 5745 5741 5737 5733 5729 5725 5721 5716 5713 5710 5707 5705 5703
5785 5788 5790 5792 5791 5791 5791 5792 5792 5790 5791 5792 5792 5792 5790 5792 5791 5789 5787 5784 5779 5776 5774 5771 5765 5761 5756 5750 5745 5740 5735 5730 5726 5721 5717 5712 5708 5703 5701 5698 5695 5693 5691
5785 5786 5788 5788 5788 5788 5789 5788 5787 5788 5789 5788 5788 5788 5789 5788 5786 5785 5782 5777 5773 5771 5767 5761 5757 5752 5746 5740 5735 5728 5723 5718 5714 5709 5704 5699 5695 5691 5688 5685 5682 5679 5675
5786 5787 5787 5787 5786 5787 5786 5785 5784 5785 5784 5786 5786 5785 5784 5783 5782 5779 5775 5770 5766 5762 5757 5752 5746 5740 5733 5728 5723 5718 5712 5706 5701 5695 5691 5686 5683 5679 5675 5670 5666 5662 5657
5782 5783 5784 5784 5785 5784 5783 5783 5782 5782 5783 5784 5783 5781 5780 5778 5776 5771 5765 5760 5756 5751 5745 5739 5733 5729 5724 5717 5711 5705 5700 5695 5689 5683 5679 5674 5668 5663 5659 5654 5649 5645 5640
5779 5780 5780 5780 5781 5779 5780 5779 5780 5780 5778 5778 5777 5775 5772 5769 5765 5760 5755 5750 5745 5739 5734 5729 5723 5718 5711 5704 5698 5692 5688 5685 5679 5672 5666 5661 5655 5649 5643 5637 5630 5624 5619
5777 5778 5775 5775 5775 5776 5776 5776 5776 5775 5773 5772 5769 5766 5762 5759 5753 5749 5745 5740 5736 5731 5724 5718 5713 5707 5700 5694 5689 5683 5677 5671 5665 5661 5653 5646 5639 5633 5626 5618 5611 5604 5597
5773 5773 5773 5772 5771 5772 5773 5772 5770 5770 5767 5765 5762 5759 5755 5750 5745 5741 5735 5729 5723 5717 5712 5707 5702 5695 5689 5682 5676 5669 5662 5655 5649 5642 5638 5629 5622 5613 5605 5596 5587 5579 5573
5770 5767 5769 5768 5769 5769 5768 5767 5766 5764 5762 5759 5755 5750 5745 5741 5736 5730 5724 5718 5712 5705 5700 5695 5688 5682 5675 5668 5661 5654 5647 5640 5633 5625 5619 5613 5605 5596 5586 5575 5564 5555 5549